Location: Chantarel
(45.1638°N, 1.7873°E)
Time: 20:56:17
(UTC+00:00)

OBJECT-B - Pass Details

Date: 03 March 2021
Orbit: 414 x 427 km, 97.0° (Epoch: 11 April)

Event Time Altitude Azimuth Distance (km) Brightness Sun altitude
Exits shadow 19:38:15 30° 5° (N) 794 2.2 -21.0°
Drops below altitude 10° 19:40:03 10° 355° (N) 1,514 3.8 -21.3°
Sets 19:42:04 0° 352° (N) 2,381 4.9 -21.7°
